VJC787 VVTS-VVDN

Flight info

Callsign VJC787
Flight time 0h 59m
Altitude 35000
Route PATMA5P PATMA Q2 SADAS/K0804F290 Q7 MUMGA Q1 SADIN SADIN2L
Aircraft A339/H-SADE1E2E3GHIJ3J5M1P2RWXY/LB2D1

Departure

Time 2026-04-23 05:57
Airport Tan Son Nhat International Airport (VVTS)

Arrival

Time 2026-04-23 06:56
Airport Da Nang International Airport (VVDN)
Time Latitude Longitude Altitude Speed Heading
2026-04-23 05:33 10.81261 106.66108 43 ft 0 kts 95°
2026-04-23 05:42 10.81262 106.66100 43 ft 2 kts 95°
2026-04-23 05:43 10.81262 106.66093 43 ft 2 kts 95°
2026-04-23 05:43 10.81263 106.66090 43 ft 1 kts 95°
2026-04-23 05:43 10.81263 106.66085 43 ft 2 kts 95°
2026-04-23 05:43 10.81263 106.66081 43 ft 2 kts 93°
2026-04-23 05:44 10.81264 106.66077 42 ft 2 kts 89°
2026-04-23 05:44 10.81262 106.66062 42 ft 2 kts 75°
2026-04-23 05:44 10.81257 106.66048 42 ft 2 kts 64°
2026-04-23 05:44 10.81252 106.66039 42 ft 2 kts 56°
2026-04-23 05:46 10.81196 106.66004 42 ft 1 kts
2026-04-23 05:46 10.81195 106.66004 42 ft 0 kts
2026-04-23 05:48 10.81200 106.66004 42 ft 2 kts
2026-04-23 05:49 10.81237 106.66012 42 ft 8 kts 10°
2026-04-23 05:49 10.81311 106.66019 40 ft 12 kts
2026-04-23 05:49 10.81370 106.66025 39 ft 7 kts
2026-04-23 05:49 10.81412 106.66028 39 ft 0 kts
2026-04-23 05:50 10.81415 106.66029 39 ft 0 kts
2026-04-23 05:50 10.81437 106.66031 38 ft 6 kts
2026-04-23 05:50 10.81491 106.66036 37 ft 6 kts
2026-04-23 05:50 10.81519 106.66039 37 ft 2 kts
2026-04-23 05:51 10.81548 106.66041 37 ft 5 kts
2026-04-23 05:51 10.81593 106.66045 37 ft 7 kts
2026-04-23 05:51 10.81653 106.66051 37 ft 10 kts
2026-04-23 05:51 10.81731 106.66058 37 ft 11 kts
2026-04-23 05:52 10.81816 106.66067 37 ft 12 kts
2026-04-23 05:52 10.81881 106.66123 37 ft 13 kts 68°
2026-04-23 05:52 10.81915 106.66215 37 ft 13 kts 69°
2026-04-23 05:52 10.81950 106.66309 37 ft 14 kts 70°
2026-04-23 05:53 10.81986 106.66407 37 ft 15 kts 68°
2026-04-23 05:53 10.82027 106.66509 37 ft 15 kts 68°
2026-04-23 05:53 10.82063 106.66608 38 ft 15 kts 72°
2026-04-23 05:53 10.82097 106.66708 39 ft 14 kts 67°
2026-04-23 05:54 10.82136 106.66802 40 ft 14 kts 67°
2026-04-23 05:54 10.82174 106.66897 41 ft 14 kts 69°
2026-04-23 05:54 10.82207 106.66988 43 ft 13 kts 69°
2026-04-23 05:54 10.82256 106.67025 43 ft 7 kts 340°
2026-04-23 05:55 10.82307 106.66986 43 ft 10 kts 316°
2026-04-23 05:55 10.82351 106.66952 42 ft 2 kts 332°
2026-04-23 05:55 10.82357 106.66933 42 ft 4 kts 285°
2026-04-23 05:55 10.82358 106.66917 42 ft 0 kts 250°
2026-04-23 05:56 10.82357 106.66914 42 ft 0 kts 250°
2026-04-23 05:56 10.82345 106.66883 41 ft 23 kts 249°
2026-04-23 05:57 10.82201 106.66502 40 ft 88 kts 249°
2026-04-23 05:57 10.81915 106.65745 37 ft 141 kts 249°
2026-04-23 05:57 10.81514 106.64681 182 ft 171 kts 248°
2026-04-23 05:57 10.81107 106.63541 653 ft 175 kts 248°
2026-04-23 05:58 10.80684 106.62363 1144 ft 178 kts 247°
2026-04-23 05:58 10.80228 106.61148 1400 ft 190 kts 246°
2026-04-23 05:58 10.79720 106.59843 1650 ft 204 kts 247°
2026-04-23 05:58 10.79184 106.58448 1899 ft 218 kts 248°
2026-04-23 05:59 10.78611 106.56937 2157 ft 233 kts 248°
2026-04-23 05:59 10.78013 106.55344 2436 ft 249 kts 248°
2026-04-23 05:59 10.77451 106.53620 2715 ft 266 kts 261°
2026-04-23 05:59 10.77737 106.51716 3145 ft 278 kts 298°
2026-04-23 06:00 10.79047 106.50313 3803 ft 278 kts 331°
2026-04-23 06:00 10.80897 106.49768 4474 ft 277 kts
2026-04-23 06:00 10.82803 106.49979 5127 ft 278 kts
2026-04-23 06:00 10.84750 106.50214 5802 ft 281 kts
2026-04-23 06:01 10.86698 106.50422 6493 ft 282 kts
2026-04-23 06:01 10.88647 106.50623 7164 ft 284 kts
2026-04-23 06:01 10.90634 106.50826 7821 ft 286 kts
2026-04-23 06:01 10.92604 106.51070 8477 ft 286 kts 15°
2026-04-23 06:02 10.94409 106.51941 9108 ft 286 kts 41°
2026-04-23 06:02 10.95758 106.53448 9752 ft 287 kts 53°
2026-04-23 06:02 10.96930 106.55087 10234 ft 295 kts 55°
2026-04-23 06:02 10.98179 106.56842 10528 ft 312 kts 54°
2026-04-23 06:03 10.99512 106.58655 10909 ft 325 kts 53°
2026-04-23 06:03 11.00906 106.60498 11438 ft 330 kts 53°
2026-04-23 06:03 11.02332 106.62364 12044 ft 332 kts 52°
2026-04-23 06:03 11.03763 106.64230 12651 ft 335 kts 52°
2026-04-23 06:04 11.05209 106.66116 13212 ft 339 kts 52°
2026-04-23 06:04 11.06676 106.68027 13769 ft 342 kts 52°
2026-04-23 06:04 11.08147 106.69945 14353 ft 345 kts 52°
2026-04-23 06:04 11.09628 106.71876 14937 ft 348 kts 53°
2026-04-23 06:05 11.11126 106.73828 15523 ft 350 kts 53°
2026-04-23 06:05 11.12624 106.75784 16078 ft 353 kts 53°
2026-04-23 06:05 11.14137 106.77759 16640 ft 355 kts 53°
2026-04-23 06:05 11.15666 106.79754 17199 ft 358 kts 53°
2026-04-23 06:06 11.17209 106.81768 17751 ft 361 kts 53°
2026-04-23 06:06 11.18759 106.83792 18263 ft 364 kts 53°
2026-04-23 06:06 11.20330 106.85844 18772 ft 368 kts 53°
2026-04-23 06:06 11.21925 106.87928 19285 ft 371 kts 53°
2026-04-23 06:07 11.23507 106.89995 19774 ft 374 kts 53°
2026-04-23 06:07 11.25134 106.92120 20243 ft 378 kts 53°
2026-04-23 06:07 11.26743 106.94222 20687 ft 382 kts 53°
2026-04-23 06:07 11.28405 106.96395 21130 ft 386 kts 53°
2026-04-23 06:08 11.30069 106.98570 21563 ft 389 kts 53°
2026-04-23 06:08 11.31747 107.00766 21979 ft 393 kts 53°
2026-04-23 06:08 11.33442 107.02982 22397 ft 396 kts 53°
2026-04-23 06:08 11.35263 107.05129 22836 ft 400 kts 47°
2026-04-23 06:09 11.37262 107.07072 23279 ft 402 kts 41°
2026-04-23 06:09 11.39470 107.08863 23729 ft 405 kts 38°
2026-04-23 06:09 11.41752 107.10609 24158 ft 407 kts 38°
2026-04-23 06:09 11.44044 107.12349 24587 ft 409 kts 37°
2026-04-23 06:10 11.46362 107.14108 25007 ft 411 kts 37°
2026-04-23 06:10 11.48681 107.15872 25423 ft 413 kts 38°
2026-04-23 06:10 11.51059 107.17685 25833 ft 415 kts 37°
2026-04-23 06:10 11.53416 107.19485 26225 ft 418 kts 37°
2026-04-23 06:11 11.55773 107.21284 26612 ft 420 kts 37°
2026-04-23 06:11 11.58137 107.23089 27000 ft 422 kts 37°
2026-04-23 06:11 11.60518 107.24909 27367 ft 424 kts 37°
2026-04-23 06:11 11.62921 107.26746 27725 ft 426 kts 37°
2026-04-23 06:12 11.65331 107.28590 28090 ft 429 kts 37°
2026-04-23 06:12 11.67742 107.30435 28460 ft 430 kts 37°
2026-04-23 06:12 11.72645 107.34190 29221 ft 433 kts 37°
2026-04-23 06:13 11.75083 107.36056 29579 ft 435 kts 37°
2026-04-23 06:13 11.77565 107.37955 29926 ft 437 kts 37°
2026-04-23 06:13 11.80025 107.39838 30259 ft 439 kts 37°
2026-04-23 06:13 11.82525 107.41753 30586 ft 441 kts 37°
2026-04-23 06:14 11.84994 107.43645 30902 ft 443 kts 37°
2026-04-23 06:14 11.87514 107.45578 31218 ft 445 kts 37°
2026-04-23 06:14 11.90011 107.47494 31541 ft 447 kts 37°
2026-04-23 06:14 11.92520 107.49418 31857 ft 449 kts 37°
2026-04-23 06:15 11.95078 107.51380 32165 ft 451 kts 37°
2026-04-23 06:15 11.97613 107.53324 32467 ft 452 kts 37°
2026-04-23 06:15 12.00178 107.55293 32794 ft 454 kts 37°
2026-04-23 06:15 12.02759 107.57273 33240 ft 453 kts 38°
2026-04-23 06:16 12.05307 107.59229 33720 ft 452 kts 38°
2026-04-23 06:16 12.07839 107.61177 34138 ft 451 kts 37°
2026-04-23 06:16 12.10405 107.63150 34502 ft 452 kts 37°
2026-04-23 06:16 12.12915 107.65081 34841 ft 453 kts 38°
2026-04-23 06:17 12.15492 107.67062 34987 ft 454 kts 37°
2026-04-23 06:17 12.18057 107.69033 34995 ft 454 kts 37°
2026-04-23 06:17 12.23147 107.72948 35023 ft 454 kts 37°
2026-04-23 06:18 12.28367 107.76667 35044 ft 454 kts 31°
2026-04-23 06:18 12.34212 107.79410 35015 ft 455 kts 20°
2026-04-23 06:19 12.40395 107.80941 34969 ft 455 kts
2026-04-23 06:19 12.46836 107.81349 34919 ft 456 kts
2026-04-23 06:20 12.53257 107.81461 34881 ft 456 kts
2026-04-23 06:20 12.59700 107.81574 34874 ft 457 kts
2026-04-23 06:21 12.66118 107.81693 34863 ft 457 kts
2026-04-23 06:21 12.72556 107.81818 34850 ft 457 kts
2026-04-23 06:22 12.78906 107.81943 34839 ft 457 kts
2026-04-23 06:22 12.85314 107.82069 34831 ft 457 kts
2026-04-23 06:23 12.91685 107.82193 34824 ft 457 kts
2026-04-23 06:23 12.98080 107.82317 34820 ft 456 kts
2026-04-23 06:24 13.04438 107.82442 34816 ft 456 kts
2026-04-23 06:24 13.10800 107.82565 34815 ft 456 kts
2026-04-23 06:25 13.17163 107.82689 34816 ft 457 kts
2026-04-23 06:25 13.23549 107.82864 34818 ft 457 kts
2026-04-23 06:26 13.29834 107.83673 34822 ft 455 kts 12°
2026-04-23 06:26 13.36058 107.85309 34828 ft 454 kts 19°
2026-04-23 06:27 13.41960 107.87700 34835 ft 453 kts 25°
2026-04-23 06:27 13.47658 107.90404 34844 ft 453 kts 26°
2026-04-23 06:28 13.53410 107.93153 34854 ft 453 kts 26°
2026-04-23 06:28 13.59152 107.95892 34871 ft 454 kts 26°
2026-04-23 06:29 13.64865 107.98615 34884 ft 454 kts 26°
2026-04-23 06:29 13.70604 108.01351 34890 ft 453 kts 26°
2026-04-23 06:30 13.73455 108.02711 34710 ft 452 kts 26°
2026-04-23 06:30 13.76349 108.04090 33825 ft 459 kts 26°
2026-04-23 06:30 13.79268 108.05482 32698 ft 468 kts 26°
2026-04-23 06:30 13.82215 108.06889 31884 ft 471 kts 26°
2026-04-23 06:31 13.85191 108.08312 31441 ft 466 kts 26°
2026-04-23 06:31 13.88091 108.09698 31032 ft 461 kts 26°
2026-04-23 06:31 13.91007 108.11091 30553 ft 457 kts 26°
2026-04-23 06:31 13.93889 108.12468 30058 ft 454 kts 26°
2026-04-23 06:32 13.96760 108.13826 29564 ft 451 kts 24°
2026-04-23 06:32 13.99709 108.14849 29064 ft 449 kts 15°
2026-04-23 06:32 14.02801 108.15418 28590 ft 447 kts
2026-04-23 06:32 14.05885 108.15584 28134 ft 444 kts
2026-04-23 06:33 14.08969 108.15647 27662 ft 441 kts
2026-04-23 06:33 14.12077 108.15694 27175 ft 439 kts
2026-04-23 06:33 14.15112 108.15742 26650 ft 438 kts
2026-04-23 06:33 14.18135 108.15795 26168 ft 435 kts
2026-04-23 06:34 14.21166 108.15854 25747 ft 432 kts
2026-04-23 06:34 14.24161 108.15915 25355 ft 427 kts
2026-04-23 06:34 14.27155 108.15978 24970 ft 423 kts
2026-04-23 06:34 14.30088 108.16042 24595 ft 419 kts
2026-04-23 06:35 14.32993 108.16109 24219 ft 415 kts
2026-04-23 06:35 14.35861 108.16175 23834 ft 411 kts
2026-04-23 06:35 14.38712 108.16239 23443 ft 408 kts
2026-04-23 06:35 14.41550 108.16303 23054 ft 405 kts
2026-04-23 06:36 14.44368 108.16367 22674 ft 402 kts
2026-04-23 06:36 14.47178 108.16431 22309 ft 399 kts
2026-04-23 06:36 14.49916 108.16492 21958 ft 395 kts
2026-04-23 06:36 14.52687 108.16554 21623 ft 392 kts
2026-04-23 06:37 14.55411 108.16615 21287 ft 389 kts
2026-04-23 06:37 14.58114 108.16675 20959 ft 386 kts
2026-04-23 06:37 14.60794 108.16733 20645 ft 383 kts
2026-04-23 06:37 14.63443 108.16790 20314 ft 380 kts
2026-04-23 06:38 14.66089 108.16849 19984 ft 377 kts
2026-04-23 06:38 14.68707 108.16905 19661 ft 374 kts
2026-04-23 06:38 14.71286 108.16961 19325 ft 372 kts
2026-04-23 06:38 14.73918 108.17017 18984 ft 370 kts
2026-04-23 06:39 14.76479 108.17069 18657 ft 368 kts
2026-04-23 06:39 14.79064 108.17125 18325 ft 366 kts
2026-04-23 06:39 14.81605 108.17180 17997 ft 363 kts
2026-04-23 06:39 14.84142 108.17235 17667 ft 361 kts
2026-04-23 06:40 14.86653 108.17287 17332 ft 359 kts
2026-04-23 06:40 14.89173 108.17341 17014 ft 356 kts
2026-04-23 06:40 14.91652 108.17395 16686 ft 354 kts
2026-04-23 06:40 14.94132 108.17449 16348 ft 353 kts
2026-04-23 06:41 14.96573 108.17503 15998 ft 352 kts
2026-04-23 06:41 14.99066 108.17557 15639 ft 351 kts
2026-04-23 06:41 15.01505 108.17610 15270 ft 351 kts
2026-04-23 06:41 15.03951 108.17664 14913 ft 349 kts
2026-04-23 06:42 15.06391 108.17677 14559 ft 348 kts 356°
2026-04-23 06:42 15.08764 108.17345 14210 ft 346 kts 347°
2026-04-23 06:42 15.11097 108.16619 13866 ft 345 kts 340°
2026-04-23 06:42 15.13363 108.15753 13523 ft 343 kts 339°
2026-04-23 06:43 15.15601 108.14873 13172 ft 342 kts 339°
2026-04-23 06:43 15.17861 108.13989 12816 ft 341 kts 339°
2026-04-23 06:43 15.20067 108.13131 12479 ft 339 kts 339°
2026-04-23 06:43 15.22286 108.12272 12141 ft 337 kts 339°
2026-04-23 06:44 15.24504 108.11417 11758 ft 337 kts 339°
2026-04-23 06:44 15.26699 108.10572 11391 ft 336 kts 339°
2026-04-23 06:44 15.28881 108.09733 11055 ft 335 kts 339°
2026-04-23 06:44 15.31061 108.08894 10741 ft 333 kts 339°
2026-04-23 06:45 15.33266 108.08044 10383 ft 332 kts 339°
2026-04-23 06:45 15.35409 108.07219 10136 ft 327 kts 339°
2026-04-23 06:45 15.37534 108.06400 10104 ft 314 kts 339°
2026-04-23 06:45 15.39374 108.05692 10086 ft 304 kts 339°
2026-04-23 06:46 15.41372 108.05054 10024 ft 293 kts 354°
2026-04-23 06:46 15.43381 108.05323 9858 ft 287 kts 22°
2026-04-23 06:46 15.45178 108.06235 9489 ft 290 kts 28°
2026-04-23 06:46 15.47008 108.07226 9127 ft 292 kts 28°
2026-04-23 06:47 15.48815 108.08193 8792 ft 294 kts 27°
2026-04-23 06:47 15.50662 108.09167 8448 ft 296 kts 27°
2026-04-23 06:47 15.52516 108.10136 8120 ft 298 kts 27°
2026-04-23 06:47 15.54384 108.11106 7781 ft 299 kts 27°
2026-04-23 06:48 15.56263 108.12080 7445 ft 300 kts 27°
2026-04-23 06:48 15.58151 108.13056 7110 ft 301 kts 27°
2026-04-23 06:48 15.60017 108.14024 6788 ft 302 kts 26°
2026-04-23 06:48 15.61912 108.15005 6448 ft 303 kts 26°
2026-04-23 06:49 15.63782 108.15972 6068 ft 295 kts 26°
2026-04-23 06:49 15.65581 108.16904 5819 ft 280 kts 26°
2026-04-23 06:49 15.67315 108.17802 5596 ft 273 kts 26°
2026-04-23 06:49 15.68989 108.18668 5382 ft 265 kts 26°
2026-04-23 06:50 15.70621 108.19511 5222 ft 258 kts 26°
2026-04-23 06:50 15.72250 108.20355 5036 ft 256 kts 27°
2026-04-23 06:50 15.73848 108.21181 4852 ft 254 kts 27°
2026-04-23 06:50 15.75421 108.21993 4673 ft 252 kts 27°
2026-04-23 06:51 15.77000 108.22810 4500 ft 249 kts 25°
2026-04-23 06:51 15.78650 108.23325 4415 ft 242 kts
2026-04-23 06:51 15.80335 108.23350 4211 ft 241 kts 355°
2026-04-23 06:51 15.82032 108.23132 3913 ft 243 kts 352°
2026-04-23 06:52 15.83708 108.22858 3613 ft 245 kts 352°
2026-04-23 06:52 15.85418 108.22585 3250 ft 243 kts 353°
2026-04-23 06:52 15.87077 108.22335 2952 ft 234 kts 353°
2026-04-23 06:52 15.88665 108.22105 2684 ft 225 kts 354°
2026-04-23 06:53 15.90212 108.21884 2420 ft 218 kts 354°
2026-04-23 06:53 15.91695 108.21672 2159 ft 205 kts 354°
2026-04-23 06:53 15.93084 108.21471 1930 ft 191 kts 354°
2026-04-23 06:53 15.94384 108.21285 1703 ft 184 kts 355°
2026-04-23 06:54 15.95638 108.21104 1466 ft 179 kts 354°
2026-04-23 06:54 15.96883 108.20924 1216 ft 174 kts 355°
2026-04-23 06:54 15.98078 108.20751 989 ft 168 kts 355°
2026-04-23 06:54 15.99233 108.20585 780 ft 162 kts 355°
2026-04-23 06:55 16.00347 108.20429 571 ft 157 kts 354°
2026-04-23 06:55 16.01409 108.20258 387 ft 151 kts 355°
2026-04-23 06:55 16.02470 108.20122 194 ft 152 kts 353°
2026-04-23 06:55 16.03535 108.19960 75 ft 148 kts 354°
2026-04-23 06:56 16.04444 108.19831 71 ft 108 kts 350°
2026-04-23 06:56 16.05052 108.19742 69 ft 75 kts 352°
2026-04-23 06:56 16.05531 108.19672 67 ft 51 kts 353°
2026-04-23 06:56 16.05715 108.19685 64 ft 15 kts 70°
2026-04-23 06:57 16.05735 108.19797 64 ft 15 kts 82°
2026-04-23 06:57 16.05751 108.19914 62 ft 17 kts 82°
2026-04-23 06:57 16.05734 108.19981 60 ft 8 kts 152°
2026-04-23 06:57 16.05674 108.19993 60 ft 9 kts 174°
2026-04-23 06:58 16.05603 108.20002 60 ft 10 kts 171°
2026-04-23 06:58 16.05523 108.20014 60 ft 12 kts 171°
2026-04-23 06:58 16.05439 108.20027 61 ft 12 kts 172°
2026-04-23 06:58 16.05407 108.20038 62 ft 3 kts 137°
2026-04-23 06:59 16.05398 108.20058 62 ft 2 kts 97°
2026-04-23 06:59 16.05399 108.20089 61 ft 5 kts 86°
2026-04-23 06:59 16.05404 108.20132 61 ft 5 kts 80°
2026-04-23 06:59 16.05407 108.20149 61 ft 1 kts 81°
2026-04-23 07:00 16.05408 108.20155 61 ft 0 kts 81°